GW7220 Weather Reports


time (UTC)temp
C
wind
direction
speed
KPH
gust
KPH
rain 1hr
cm
rain 24hr
cm
rain mn
cm
humidity
%
barometer
mb
20260506182426 17 61 1.6 4.8 0.00 0.28 0.28 87 1005.9
20260506181923 17 87 3.2 11.3 0.00 0.28 0.28 86 1005.8
20260506181421 17 193 3.2 4.8 0.00 0.28 0.28 85 1005.9
20260506180918 17 99 3.2 11.3 0.00 0.28 0.28 84 1005.6
20260506180414 17 310 1.6 6.4 0.00 0.28 0.28 85 1005.7
20260506175911 17 182 3.2 6.4 0.00 0.28 0.28 85 1005.7
20260506175408 17 133 4.8 14.5 0.00 0.28 0.28 86 1005.8
20260506174905 17 74 0.0 17.7 0.00 0.28 0.28 86 1006.1
20260506174402 17 54 0.0 1.6 0.00 0.28 0.28 87 1006.0
20260506173859 17 330 6.4 11.3 0.00 0.28 0.28 86 1005.9
20260506173356 17 116 0.0 4.8 0.00 0.28 0.28 87 1005.8
20260506172853 17 65 3.2 11.3 0.00 0.28 0.28 87 1005.9
20260506172350 17 165 4.8 6.4 0.00 0.28 0.28 87 1006.0
20260506171847 17 177 4.8 11.3 0.00 0.28 0.28 88 1006.3
20260506171344 17 122 0.0 3.2 0.00 0.28 0.28 88 1006.2
20260506170842 17 160 3.2 4.8 0.00 0.28 0.28 87 1006.2
20260506170338 17 86 4.8 6.4 0.00 0.28 0.28 87 1006.0
20260506165837 17 137 3.2 4.8 0.00 0.28 0.28 88 1005.9
20260506165335 17 13 3.2 9.7 0.00 0.28 0.28 87 1006.0
20260506164831 17 209 3.2 3.2 0.00 0.28 0.28 89 1006.1
20260506164328 17 211 1.6 6.4 0.00 0.28 0.28 89 1006.2
20260506163825 17 38 0.0 3.2 0.00 0.28 0.28 90 1006.3
20260506163320 17 56 0.0 1.6 0.18 0.28 0.28 90 1005.9
20260506162815 17 69 0.0 1.6 0.18 0.28 0.28 90 1006.3
20260506162314 17 152 3.2 4.8 0.13 0.25 0.25 90 1006.6
20260506161811 17 76 0.0 4.8 0.30 0.25 0.25 90 1006.7
20260506161308 17 166 0.0 3.2 0.18 0.23 0.23 89 1007.2
20260506160805 17 81 0.0 1.6 0.13 0.20 0.20 90 1007.3
20260506160302 17 124 0.0 3.2 0.13 0.20 0.20 89 1007.3
20260506155801 17 97 1.6 3.2 0.18 0.18 0.18 89 1007.4
20260506155257 16 59 0.0 9.7 0.13 0.15 0.15 88 1007.6
20260506153410 17 59 0.0 1.6 0.30 0.10 0.10 87 1007.5
20260506152907 17 93 1.6 3.2 0.18 0.08 0.08 86 1007.0
20260506152404 17 97 0.0 1.6 0.13 0.05 0.05 84 1007.4
20260506151902 17 106 0.0 3.2 0.30 0.05 0.05 82 1007.6
20260506151359 18 90 1.6 3.2 0.18 0.03 0.03 79 1007.6
20260506150857 18 338 3.2 3.2 0.00 0.00 0.00 77 1007.4
20260506150352 18 242 3.2 6.4 0.00 0.00 0.00 76 1007.1
20260506145849 18 84 0.0 3.2 0.00 0.00 0.00 76 1007.0
20260506145345 18 150 3.2 4.8 0.00 0.00 0.00 75 1007.1
20260506144843 18 143 3.2 4.8 0.00 0.00 0.00 75 1007.2
20260506144339 18 142 1.6 9.7 0.00 0.00 0.00 73 1007.5
20260506143838 18 133 3.2 4.8 0.00 0.00 0.00 72 1007.4
20260506143335 19 135 3.2 6.4 0.00 0.00 0.00 69 1007.5
20260506142833 19 162 3.2 9.7 0.00 0.00 0.00 68 1007.3
20260506142331 19 121 3.2 4.8 0.00 0.00 0.00 67 1007.4
20260506141829 20 148 3.2 4.8 0.00 0.00 0.00 68 1007.4
20260506141327 20 183 3.2 6.4 0.00 0.00 0.00 65 1007.5
20260506140824 20 171 12.9 16.1 0.00 0.00 0.00 64 1007.3
20260506140321 20 206 9.7 12.9 0.00 0.00 0.00 64 1007.1
20260506135818 20 76 1.6 6.4 0.00 0.00 0.00 64 1007.1
20260506135314 20 177 1.6 3.2 0.00 0.00 0.00 65 1007.2
20260506134811 20 156 3.2 4.8 0.00 0.00 0.00 68 1007.1
20260506134308 19 242 3.2 6.4 0.00 0.00 0.00 68 1007.1
20260506133804 19 126 4.8 9.7 0.00 0.00 0.00 68 1007.4
20260506133301 19 83 6.4 11.3 0.00 0.00 0.00 69 1007.5
20260506132758 19 183 3.2 12.9 0.00 0.00 0.00 69 1007.1
20260506132255 19 96 3.2 4.8 0.00 0.00 0.00 70 1007.3
20260506131754 19 135 0.0 3.2 0.00 0.00 0.00 71 1007.3
20260506131249 19 96 1.6 3.2 0.00 0.00 0.00 71 1007.4
20260506130746 19 167 1.6 9.7 0.00 0.00 0.00 70 1007.6
20260506130243 19 80 1.6 4.8 0.00 0.00 0.00 70 1007.6
20260506125741 20 72 0.0 4.8 0.00 0.00 0.00 69 1007.8
20260506125239 20 182 4.8 6.4 0.00 0.00 0.00 69 1007.4
20260506124737 19 16 1.6 9.7 0.00 0.00 0.00 69 1007.6
20260506124234 19 185 6.4 6.4 0.00 0.00 0.00 70 1007.4
20260506123731 19 100 3.2 11.3 0.00 0.00 0.00 70 1007.4
20260506123230 19 59 1.6 4.8 0.00 0.00 0.00 70 1007.4
20260506122726 19 104 3.2 4.8 0.00 0.00 0.00 70 1007.0
20260506122224 19 93 1.6 6.4 0.00 0.00 0.00 70 1007.3
20260506121722 18 133 3.2 6.4 0.00 0.00 0.00 71 1007.3
20260506121218 18 335 3.2 6.4 0.00 0.00 0.00 70 1007.3
20260506120716 18 78 1.6 11.3 0.00 0.00 0.00 71 1007.2
20260506120213 18 76 1.6 3.2 0.00 0.00 0.00 75 1007.2
20260506115711 18 45 1.6 3.2 0.00 0.00 0.00 74 1007.4
20260506115209 17 176 1.6 3.2 0.00 0.00 0.00 74 1007.3
20260506114706 17 109 1.6 9.7 0.00 0.00 0.00 75 1007.2
20260506114204 18 118 3.2 3.2 0.00 0.00 0.00 74 1007.1
20260506113703 17 68 1.6 6.4 0.00 0.00 0.00 75 1006.9
20260506113159 17 205 1.6 4.8 0.00 0.00 0.00 75 1006.9
20260506112655 17 87 4.8 6.4 0.00 0.00 0.00 76 1007.2
20260506112153 17 129 1.6 4.8 0.00 0.00 0.00 76 1007.2
20260506111650 17 58 0.0 1.6 0.00 0.00 0.00 75 1007.0
20260506111148 17 26 1.6 6.4 0.00 0.00 0.00 75 1007.3
20260506110646 17 103 0.0 4.8 0.00 0.00 0.00 76 1006.9
20260506110143 17 68 0.0 4.8 0.00 0.00 0.00 76 1007.2
20260506105639 17 165 3.2 11.3 0.00 0.00 0.00 76 1007.0
20260506105136 17 71 1.6 3.2 0.00 0.00 0.00 77 1007.0
20260506104634 17 64 1.6 3.2 0.00 0.00 0.00 77 1007.1
20260506104131 17 97 1.6 3.2 0.00 0.00 0.00 77 1007.2
20260506103629 17 25 3.2 6.4 0.00 0.00 0.00 78 1006.8
20260506103125 17 80 0.0 4.8 0.00 0.00 0.00 78 1007.2
20260506102624 17 186 1.6 3.2 0.00 0.00 0.00 78 1007.2
20260506102121 17 204 3.2 9.7 0.00 0.00 0.00 79 1007.0
20260506101617 17 87 1.6 3.2 0.00 0.00 0.00 79 1007.0
20260506101114 17 93 1.6 3.2 0.00 0.00 0.00 79 1007.0
20260506100613 16 136 3.2 4.8 0.00 0.00 0.00 79 1007.1
20260506100110 16 123 1.6 4.8 0.00 0.00 0.00 80 1007.1
20260506095609 17 185 3.2 4.8 0.00 0.00 0.00 79 1007.2
20260506095105 17 118 1.6 3.2 0.00 0.00 0.00 79 1007.2
20260506094603 17 126 3.2 11.3 0.00 0.00 0.00 79 1006.9
20260506094100 17 104 1.6 3.2 0.00 0.00 0.00 79 1006.9
20260506093558 17 187 1.6 3.2 0.00 0.00 0.00 78 1007.0
20260506093055 17 126 4.8 6.4 0.00 0.00 0.00 78 1007.0
20260506092553 17 71 6.4 9.7 0.00 0.00 0.00 78 1006.8
20260506092050 17 170 1.6 6.4 0.00 0.00 0.00 78 1007.1
20260506091548 17 138 1.6 4.8 0.00 0.00 0.00 77 1007.0
20260506091045 17 199 3.2 4.8 0.00 0.00 0.00 77 1007.1
20260506090543 17 136 1.6 4.8 0.00 0.00 0.00 77 1007.1
20260506090039 17 177 3.2 11.3 0.00 0.00 0.00 77 1007.1
20260506085536 17 54 1.6 4.8 0.00 0.00 0.00 77 1007.3
20260506085032 17 149 0.0 4.8 0.00 0.00 0.00 77 1007.0
20260506084530 17 111 1.6 4.8 0.00 0.00 0.00 77 1006.9
20260506084025 17 214 4.8 6.4 0.00 0.00 0.00 77 1007.1
20260506083523 17 195 1.6 6.4 0.00 0.00 0.00 78 1007.1
20260506083020 17 106 1.6 3.2 0.00 0.00 0.00 78 1007.1
20260506082517 17 135 1.6 6.4 0.00 0.00 0.00 78 1006.8
20260506082012 17 297 1.6 6.4 0.00 0.00 0.00 77 1007.2
20260506081511 17 113 3.2 6.4 0.00 0.00 0.00 78 1007.4
20260506081008 17 129 3.2 4.8 0.00 0.00 0.00 78 1007.4
20260506080505 17 115 6.4 6.4 0.00 0.00 0.00 78 1007.2
20260506073449 17 74 0.0 3.2 0.00 0.00 0.00 77 1007.5
20260506072946 17 198 1.6 4.8 0.00 0.00 0.00 77 1007.4
20260506072443 17 77 0.0 3.2 0.00 0.00 0.00 77 1007.5
20260506071941 17 72 1.6 3.2 0.00 0.00 0.00 77 1007.5
20260506071439 17 95 0.0 4.8 0.00 0.00 0.00 77 1007.5
20260506070935 17 126 1.6 3.2 0.00 0.00 0.00 77 1007.7
20260506070432 17 91 0.0 1.6 0.00 0.00 0.00 76 1007.6
20260506062410 18 107 0.0 3.2 0.00 0.00 0.00 74 1007.9
20260506061906 18 138 3.2 6.4 0.00 0.00 0.00 74 1007.8
20260506061403 18 126 1.6 3.2 0.00 0.00 0.00 73 1007.9
20260506060900 18 160 1.6 3.2 0.00 0.00 0.00 73 1007.8
20260506060358 18 176 1.6 3.2 0.00 0.00 0.00 73 1007.8
20260506051330 18 116 3.2 4.8 0.00 0.00 0.00 69 1008.2
20260506050828 19 148 1.6 3.2 0.00 0.00 0.00 69 1008.2
20260506050325 19 152 1.6 4.8 0.00 0.00 0.00 68 1008.1
20260506044815 19 7 8.0 14.5 0.00 0.00 0.00 68 1008.5
20260506044313 19 116 4.8 4.8 0.00 0.00 0.00 67 1008.1
20260506043810 19 179 1.6 3.2 0.00 0.00 0.00 67 1008.4
20260506043307 19 157 3.2 4.8 0.00 0.00 0.00 67 1008.6
20260506042806 19 108 1.6 4.8 0.00 0.00 0.00 66 1008.4
20260506042305 19 169 3.2 3.2 0.00 0.00 0.00 66 1008.2
20260506041803 19 233 4.8 9.7 0.00 0.00 0.00 65 1008.1
20260506041259 19 142 1.6 6.4 0.00 0.00 0.00 65 1008.3
20260506040756 20 116 1.6 3.2 0.00 0.00 0.00 65 1008.1
20260506040254 20 137 3.2 11.3 0.00 0.00 0.00 64 1008.2
20260506035750 20 142 3.2 6.4 0.00 0.00 0.00 63 1008.2
20260506035247 20 186 3.2 4.8 0.00 0.00 0.00 64 1008.2
20260506034744 20 190 4.8 12.9 0.00 0.00 0.00 63 1008.2
20260506034241 20 40 1.6 6.4 0.00 0.00 0.00 63 1007.9
20260506033738 20 135 1.6 6.4 0.00 0.00 0.00 63 1008.0
20260506033236 20 147 1.6 4.8 0.00 0.00 0.00 63 1008.1
20260506032732 20 167 1.6 4.8 0.00 0.00 0.00 63 1007.9
20260506032229 19 95 1.6 6.4 0.00 0.00 0.00 63 1008.2
20260506031726 20 155 1.6 3.2 0.00 0.00 0.00 63 1008.3
20260506031223 20 93 0.0 6.4 0.00 0.00 0.00 62 1007.9
20260506030722 20 114 1.6 3.2 0.00 0.00 0.00 61 1008.4
20260506030219 20 168 4.8 9.7 0.00 0.00 0.00 61 1008.2
20260506025715 20 80 1.6 3.2 0.00 0.00 0.00 62 1008.2
20260506025211 20 64 3.2 4.8 0.00 0.00 0.00 61 1008.1
20260506024709 20 138 1.6 6.4 0.00 0.00 0.00 61 1008.2
20260506024205 20 59 0.0 6.4 0.00 0.00 0.00 61 1008.2
20260506023701 20 130 1.6 4.8 0.00 0.00 0.00 60 1008.4
20260506023159 20 75 3.2 4.8 0.00 0.00 0.00 60 1008.1
20260506022656 20 130 1.6 3.2 0.00 0.00 0.00 59 1008.3
20260506022153 20 161 4.8 9.7 0.00 0.00 0.00 60 1008.3
20260506021651 20 191 3.2 6.4 0.00 0.00 0.00 59 1008.3
20260506021148 20 111 3.2 9.7 0.00 0.00 0.00 59 1008.3
20260506020645 20 82 3.2 6.4 0.00 0.00 0.00 59 1008.4
20260506020143 20 49 1.6 4.8 0.00 0.00 0.00 58 1008.2
20260506015640 21 114 3.2 9.7 0.00 0.00 0.00 57 1008.1
20260506015137 21 164 4.8 16.1 0.00 0.00 0.00 57 1008.1
20260506014635 21 173 3.2 4.8 0.00 0.00 0.00 57 1008.2
20260506014130 21 86 1.6 3.2 0.00 0.00 0.00 55 1008.2
20260506013628 21 37 3.2 4.8 0.00 0.00 0.00 54 1007.9
20260506013125 21 143 1.6 3.2 0.00 0.00 0.00 54 1007.9
20260506012621 21 196 4.8 6.4 0.00 0.00 0.00 52 1007.9
20260506012118 21 135 3.2 4.8 0.00 0.00 0.00 51 1008.0
20260506011616 21 155 4.8 6.4 0.00 0.00 0.00 50 1007.9
20260506011112 22 190 3.2 4.8 0.00 0.00 0.00 49 1007.9
20260506010611 22 166 1.6 3.2 0.00 0.00 0.00 49 1007.7
20260506010108 22 170 1.6 3.2 0.00 0.00 0.00 48 1007.6
20260506005605 22 136 1.6 3.2 0.00 0.00 0.00 48 1007.8
20260506005101 22 96 1.6 4.8 0.00 0.00 0.00 46 1007.6
20260506004558 22 132 0.0 4.8 0.00 0.00 0.00 45 1007.3
20260506004055 23 187 1.6 4.8 0.00 0.00 0.00 44 1007.4
20260506003551 23 171 3.2 3.2 0.00 0.00 0.00 43 1007.6
20260506003047 23 145 3.2 4.8 0.00 0.00 0.00 43 1007.2
20260506002543 23 212 1.6 6.4 0.00 0.00 0.00 43 1007.5
20260506002039 23 124 3.2 6.4 0.00 0.00 0.00 43 1007.2
20260506001536 23 176 0.0 6.4 0.00 0.00 0.00 43 1006.9
20260506001033 23 113 3.2 6.4 0.00 0.00 0.00 42 1007.0
20260506000530 23 139 3.2 4.8 0.00 0.00 0.00 43 1007.1
20260506000028 23 172 1.6 11.3 0.00 0.00 0.00 44 1007.0
20260505235526 23 150 1.6 3.2 0.00 0.00 0.00 44 1007.0
20260505235022 23 121 3.2 9.7 0.00 0.00 0.00 44 1007.0
20260505234519 23 2 1.6 6.4 0.00 0.00 0.00 44 1007.0
20260505234016 23 146 3.2 9.7 0.00 0.00 0.00 44 1006.7
20260505233514 24 98 4.8 4.8 0.00 0.00 0.00 43 1006.9
20260505233011 24 124 3.2 6.4 0.00 0.00 0.00 43 1006.8
20260505232509 24 81 3.2 11.3 0.00 0.00 0.00 44 1006.6
20260505232006 24 237 3.2 6.4 0.00 0.00 0.00 43 1006.7
20260505231503 25 187 1.6 4.8 0.00 0.00 0.00 43 1006.4
20260505231001 24 196 8.0 11.3 0.00 0.00 0.00 42 1006.7
20260505230458 25 146 1.6 6.4 0.00 0.00 0.00 42 1006.6
20260505225954 25 46 1.6 4.8 0.00 0.00 0.00 42 1006.7
20260505225452 25 190 4.8 11.3 0.00 0.00 0.00 40 1006.6
20260505224948 25 164 4.8 14.5 0.00 0.00 0.00 41 1006.6
20260505224445 25 91 4.8 6.4 0.00 0.00 0.00 40 1006.6
20260505223942 26 143 3.2 11.3 0.00 0.00 0.00 38 1006.6
20260505223439 26 179 6.4 11.3 0.00 0.00 0.00 37 1006.3
20260505222935 26 91 1.6 6.4 0.00 0.00 0.00 37 1006.4
20260505222432 26 115 4.8 14.5 0.00 0.00 0.00 35 1006.6
20260505221927 26 204 3.2 6.4 0.00 0.00 0.00 36 1006.4
20260505221425 26 133 1.6 14.5 0.00 0.00 0.00 36 1006.4
20260505220922 26 138 4.8 6.4 0.00 0.00 0.00 35 1006.6
20260505220419 26 210 4.8 14.5 0.00 0.00 0.00 35 1006.4
20260505215916 26 182 3.2 20.9 0.00 0.00 0.00 33 1006.4
20260505215415 27 151 3.2 3.2 0.00 0.00 0.00 34 1006.3
20260505214912 27 134 3.2 9.7 0.00 0.00 0.00 34 1006.3
20260505214409 27 330 4.8 12.9 0.00 0.00 0.00 34 1006.1
20260505213907 27 245 6.4 9.7 0.00 0.00 0.00 32 1006.3
20260505213404 27 163 3.2 3.2 0.00 0.00 0.00 33 1006.3
20260505212900 27 167 6.4 9.7 0.00 0.00 0.00 33 1006.2
20260505212357 27 147 3.2 9.7 0.00 0.00 0.00 31 1006.6
20260505211854 27 183 4.8 6.4 0.00 0.00 0.00 30 1006.3
20260505211351 27 28 1.6 4.8 0.00 0.00 0.00 34 1006.3
20260505210847 27 129 1.6 11.3 0.00 0.00 0.00 30 1006.2
20260505210345 27 220 6.4 9.7 0.00 0.00 0.00 31 1006.3
20260505205841 27 200 6.4 12.9 0.00 0.00 0.00 32 1006.2
20260505205340 27 67 1.6 6.4 0.00 0.00 0.00 30 1006.2
20260505204836 27 160 3.2 16.1 0.00 0.00 0.00 30 1006.5
20260505204334 28 179 3.2 14.5 0.00 0.00 0.00 29 1006.2
20260505203831 28 319 4.8 9.7 0.00 0.00 0.00 28 1006.3
20260505203327 28 133 6.4 20.9 0.00 0.00 0.00 27 1006.2
20260505202824 28 173 4.8 9.7 0.00 0.00 0.00 29 1006.0
20260505202320 28 208 6.4 11.3 0.00 0.00 0.00 29 1006.2
20260505201817 28 279 9.7 11.3 0.00 0.00 0.00 28 1006.1
20260505201314 28 345 11.3 17.7 0.00 0.00 0.00 29 1006.0
20260505200813 28 180 4.8 9.7 0.00 0.00 0.00 33 1006.1
20260505200309 28 167 4.8 11.3 0.00 0.00 0.00 30 1006.3
20260505195804 28 133 8.0 12.9 0.00 0.00 0.00 28 1006.2
20260505195305 28 202 4.8 6.4 0.00 0.00 0.00 30 1006.4
20260505194759 28 143 4.8 9.7 0.00 0.00 0.00 33 1006.4
20260505194256 28 217 3.2 9.7 0.00 0.00 0.00 31 1006.1
20260505193756 28 191 3.2 6.4 0.00 0.00 0.00 32 1006.4
20260505193255 28 192 3.2 17.7 0.00 0.00 0.00 31 1006.4
20260505192753 28 167 3.2 11.3 0.00 0.00 0.00 31 1006.3
20260505192250 28 183 6.4 25.7 0.00 0.00 0.00 31 1006.3
20260505191748 28 143 6.4 9.7 0.00 0.00 0.00 36 1006.7
20260505191246 28 45 3.2 9.7 0.00 0.00 0.00 35 1006.6
20260505190742 28 57 3.2 11.3 0.00 0.00 0.00 34 1006.7
20260505190237 28 98 3.2 14.5 0.00 0.00 0.00 34 1006.8
20260505185734 28 129 6.4 11.3 0.00 0.00 0.00 35 1006.8
20260505185231 28 56 1.6 4.8 0.00 0.00 0.00 38 1007.0
20260505184726 28 145 1.6 11.3 0.00 0.00 0.00 36 1006.9
20260505184224 28 259 4.8 11.3 0.00 0.00 0.00 35 1007.2
20260505183720 28 204 6.4 12.9 0.00 0.00 0.00 37 1007.2
20260505183218 27 11 1.6 6.4 0.00 0.00 0.00 36 1007.1